Hourly Weather Bartlett

Today, 18 April, Sunday

Time Temperature Precipitation Wind Pressure Humidity
00:00 +8°C° 0 mm 2 mps 754 mmHg 85%
01:00 +8°C° 0 mm 2 mps 754 mmHg 86%
02:00 +8°C° 0 mm 2 mps 754 mmHg 86%
03:00 +7°C° 0 mm 2 mps 754 mmHg 87%
04:00 +7°C° 0 mm 2 mps 754 mmHg 87%
05:00 +7°C° 0 mm 2 mps 754 mmHg 87%
06:00 +7°C° 0 mm 2 mps 754 mmHg 88%
07:00 +9°C° 0 mm 2 mps 755 mmHg 80%
08:00 +12°C° 0 mm 2 mps 755 mmHg 73%
09:00 +14°C° 0 mm 2 mps 755 mmHg 65%
10:00 +15°C° 0 mm 2 mps 755 mmHg 60%
11:00 +16°C° 0 mm 3 mps 754 mmHg 55%
12:00 +17°C° 0 mm 3 mps 754 mmHg 50%
13:00 +17°C° 0 mm 3 mps 753 mmHg 54%
14:00 +16°C° 0 mm 3 mps 753 mmHg 57%
15:00 +15°C° 0 mm 4 mps 752 mmHg 61%
16:00 +14°C° 0 mm 3 mps 753 mmHg 63%
17:00 +14°C° 0 mm 3 mps 753 mmHg 66%
18:00 +13°C° 0 mm 3 mps 753 mmHg 68%
19:00 +12°C° 0 mm 3 mps 753 mmHg 74%
20:00 +11°C° 0 mm 3 mps 753 mmHg 79%
21:00 +10°C° 0 mm 2 mps 754 mmHg 85%
22:00 +9°C° 0 mm 2 mps 754 mmHg 87%
23:00 +9°C° 0 mm 2 mps 754 mmHg 88%

Tomorrow, 19 April, Monday

Time Temperature Precipitation Wind Pressure Humidity
00:00 +8°C° 0 mm 2 mps 754 mmHg 90%
01:00 +8°C° 0 mm 2 mps 754 mmHg 90%
02:00 +8°C° 0 mm 2 mps 754 mmHg 90%
03:00 +7°C° 0 mm 2 mps 754 mmHg 90%
04:00 +7°C° 0 mm 2 mps 754 mmHg 89%
05:00 +7°C° 0 mm 2 mps 754 mmHg 89%
06:00 +7°C° 0 mm 2 mps 755 mmHg 88%
07:00 +9°C° 0 mm 2 mps 755 mmHg 79%
08:00 +12°C° 0 mm 2 mps 755 mmHg 70%
09:00 +14°C° 0 mm 2 mps 755 mmHg 61%
10:00 +16°C° 0 mm 2 mps 755 mmHg 56%
11:00 +17°C° 0 mm 2 mps 755 mmHg 51%
12:00 +18°C° 0 mm 2 mps 755 mmHg 46%
13:00 +18°C° 0 mm 2 mps 754 mmHg 45%
14:00 +19°C° 0 mm 2 mps 754 mmHg 44%
15:00 +19°C° 0 mm 2 mps 753 mmHg 43%
16:00 +18°C° 0 mm 2 mps 753 mmHg 49%
17:00 +18°C° 0 mm 1 mps 753 mmHg 54%
18:00 +16°C° 0 mm 1 mps 753 mmHg 59%
19:00 +15°C° 0 mm 1 mps 754 mmHg 61%
20:00 +14°C° 0 mm 1 mps 754 mmHg 63%
21:00 +13°C° 0 mm 1 mps 754 mmHg 65%
22:00 +12°C° 0 mm 1 mps 754 mmHg 66%
23:00 +12°C° 0 mm 1 mps 754 mmHg 67%

Day after tomorrow, 20 April, Tuesday

Time Temperature Precipitation Wind Pressure Humidity
00:00 +12°C° 0 mm 1 mps 754 mmHg 69%
01:00 +10°C° 0 mm 2 mps 754 mmHg 70%
02:00 +10°C° 0 mm 2 mps 754 mmHg 72%
03:00 +9°C° 0 mm 2 mps 753 mmHg 73%
04:00 +9°C° 0 mm 2 mps 754 mmHg 75%
05:00 +10°C° 0 mm 1 mps 754 mmHg 76%
06:00 +10°C° 0 mm 1 mps 754 mmHg 78%
07:00 +12°C° 0 mm 1 mps 754 mmHg 71%
08:00 +14°C° 0 mm 2 mps 754 mmHg 65%
09:00 +17°C° 0 mm 3 mps 754 mmHg 58%
10:00 +18°C° 0 mm 3 mps 754 mmHg 54%
11:00 +19°C° 0 mm 4 mps 753 mmHg 51%
12:00 +21°C° 0 mm 5 mps 753 mmHg 47%
13:00 +21°C° 0 mm 5 mps 752 mmHg 47%
14:00 +21°C° 0 mm 6 mps 751 mmHg 47%
15:00 +22°C° 0 mm 6 mps 751 mmHg 47%
16:00 +16°C° 0 mm 7 mps 752 mmHg 58%
17:00 +10°C° 0 mm 7 mps 753 mmHg 69%
18:00 +4°C° 0 mm 8 mps 755 mmHg 80%
19:00 +3°C° 0.5 mm 7 mps 756 mmHg 83%
20:00 +2°C° 0.5 mm 6 mps 757 mmHg 86%
21:00 +2°C° 0.5 mm 6 mps 758 mmHg 90%
22:00 +1°C° 0 mm 5 mps 758 mmHg 89%
23:00 +1°C° 0 mm 5 mps 759 mmHg 88%

21 April, Wednesday

Time Temperature Precipitation Wind Pressure Humidity
00:00 0°C° 0 mm 5 mps 759 mmHg 87%
01:00 0°C° 0 mm 4 mps 759 mmHg 86%
02:00 +1°C° 0 mm 3 mps 760 mmHg 84%
03:00 +1°C° 0 mm 3 mps 760 mmHg 83%
04:00 +1°C° 0 mm 3 mps 760 mmHg 85%
05:00 +2°C° 0 mm 2 mps 761 mmHg 86%
06:00 +1°C° 0 mm 2 mps 761 mmHg 88%
07:00 +3°C° 0 mm 2 mps 761 mmHg 78%
08:00 +4°C° 0 mm 3 mps 762 mmHg 68%
09:00 +8°C° 0 mm 3 mps 762 mmHg 59%
10:00 +9°C° 0 mm 3 mps 762 mmHg 52%
11:00 +10°C° 0 mm 3 mps 762 mmHg 46%
12:00 +11°C° 0 mm 3 mps 762 mmHg 40%
13:00 +12°C° 0 mm 3 mps 761 mmHg 40%
14:00 +12°C° 0 mm 3 mps 761 mmHg 39%
15:00 +13°C° 0 mm 3 mps 760 mmHg 39%
16:00 +13°C° 0 mm 2 mps 760 mmHg 44%
17:00 +12°C° 0 mm 1 mps 760 mmHg 48%
18:00 +11°C° 0 mm 1 mps 760 mmHg 53%
19:00 +10°C° 0 mm 1 mps 760 mmHg 54%
20:00 +8°C° 0 mm 2 mps 760 mmHg 56%
21:00 +7°C° 0 mm 2 mps 760 mmHg 57%
22:00 +7°C° 0 mm 2 mps 760 mmHg 59%
23:00 +7°C° 0 mm 2 mps 760 mmHg 61%

22 April, Thursday

Time Temperature Precipitation Wind Pressure Humidity
00:00 +6°C° 0 mm 2 mps 760 mmHg 63%
01:00 +6°C° 0 mm 2 mps 760 mmHg 64%
02:00 +7°C° 0 mm 1 mps 760 mmHg 65%
03:00 +7°C° 0 mm 1 mps 760 mmHg 66%
04:00 +7°C° 0 mm 1 mps 760 mmHg 67%
05:00 +7°C° 0 mm 1 mps 760 mmHg 68%
06:00 +7°C° 0 mm 1 mps 760 mmHg 69%
07:00 +8°C° 0 mm 2 mps 761 mmHg 68%
08:00 +9°C° 0 mm 2 mps 761 mmHg 68%
09:00 +10°C° 0 mm 2 mps 762 mmHg 67%
10:00 +12°C° 0 mm 3 mps 762 mmHg 61%
11:00 +13°C° 0 mm 3 mps 762 mmHg 55%
12:00 +14°C° 0 mm 4 mps 761 mmHg 49%
13:00 +14°C° 0 mm 4 mps 761 mmHg 48%
14:00 +14°C° 0 mm 4 mps 761 mmHg 47%
15:00 +14°C° 0 mm 4 mps 760 mmHg 46%
16:00 +13°C° 0 mm 3 mps 760 mmHg 50%
17:00 +14°C° 0 mm 2 mps 760 mmHg 54%
18:00 +13°C° 0 mm 1 mps 759 mmHg 58%
19:00 +12°C° 0 mm 1 mps 760 mmHg 58%
20:00 +11°C° 0 mm 1 mps 760 mmHg 58%
21:00 +10°C° 0 mm 1 mps 760 mmHg 58%
22:00 +10°C° 0 mm 1 mps 760 mmHg 61%
23:00 +10°C° 0 mm 1 mps 760 mmHg 63%

23 April, Friday

Time Temperature Precipitation Wind Pressure Humidity
00:00 +8°C° 0 mm 2 mps 760 mmHg 65%
01:00 +8°C° 0 mm 2 mps 760 mmHg 67%
02:00 +8°C° 0 mm 2 mps 760 mmHg 68%
03:00 +8°C° 0 mm 2 mps 760 mmHg 70%
04:00 +9°C° 0 mm 1 mps 760 mmHg 70%
05:00 +9°C° 0 mm 1 mps 760 mmHg 71%
06:00 +9°C° 0 mm 1 mps 760 mmHg 71%
07:00 +10°C° 0 mm 1 mps 760 mmHg 71%
08:00 +9°C° 0 mm 2 mps 760 mmHg 70%
09:00 +10°C° 0 mm 2 mps 760 mmHg 70%
10:00 +12°C° 0 mm 2 mps 760 mmHg 69%
11:00 +12°C° 0 mm 2 mps 759 mmHg 67%
12:00 +13°C° 0 mm 2 mps 759 mmHg 66%
13:00 +14°C° 0 mm 3 mps 758 mmHg 63%
14:00 +17°C° 0 mm 3 mps 758 mmHg 60%
15:00 +18°C° 0 mm 3 mps 757 mmHg 57%
16:00 +17°C° 0 mm 3 mps 756 mmHg 62%
17:00 +17°C° 0 mm 2 mps 756 mmHg 68%
18:00 +16°C° 0 mm 2 mps 756 mmHg 74%
19:00 +15°C° 0 mm 2 mps 756 mmHg 76%
20:00 +14°C° 0 mm 2 mps 756 mmHg 78%
21:00 +14°C° 0 mm 2 mps 756 mmHg 80%
22:00 +13°C° 0 mm 2 mps 756 mmHg 81%
23:00 +13°C° 0 mm 2 mps 756 mmHg 82%
Show more